Location: Lake Zurich
(42.1970°N, 88.0930°W)
Time: 14:34:32
(UTC-05:00)

Amateur Radio Satellites - All Passes

Search period start: 21 September 2017 14:04
Search period end: 22 September 2017 14:04
Location: Lake Zurich, 42.1970°N, 88.0930°W

Satellite Date Start Highest point End Downlink Frequencies (MHz)
Time Altitude Azimuth
O/OREOS (USA 219) 21 Sep 14:08:09 14:11:23 19° 259° (W) 14:14:37 437.305
SO-50 21 Sep 14:18:29 14:22:25 30° 115° (ESE) 14:26:22 436.795
NO-84 21 Sep 14:22:53 14:26:42 83° 322° (NW) 14:30:11 435.350 FM
PCSat 21 Sep 14:25:43 14:29:42 21° 106° (ESE) 14:33:43 145.827
50 SAT 21 Sep 14:50:26 14:53:22 29° 289° (WNW) 14:56:17 437.505
BEESAT 21 Sep 14:53:53 14:55:31 12° 89° (E) 14:57:09 436.000
UKube-1 21 Sep 14:59:04 15:03:23 75° 284° (WNW) 15:07:40 .
DX 1 21 Sep 15:00:50 15:05:00 46° 289° (WNW) 15:09:08 434.975-435.025
ITAMSAT 1 21 Sep 15:02:14 15:07:04 42° 69° (ENE) 15:11:56 435.822/435.867
Gurwin Techsat 1B 21 Sep 15:08:37 15:12:25 20° 268° (W) 15:16:14 435.225
MOZHAYETS 4 21 Sep 15:45:08 15:49:31 39° 98° (E) 15:53:51
AO-7 21 Sep 15:50:08 15:58:24 66° 255° (WSW) 16:06:42 .
ITUPSAT 1 21 Sep 15:50:44 15:55:21 44° 99° (E) 15:59:56 437.325
RS-15 21 Sep 15:56:45 16:08:19 60° 247° (WSW) 16:19:16 29.354- 29.394
SO-50 21 Sep 15:58:46 16:02:49 32° 313° (NW) 16:06:53 436.795
NO-84 21 Sep 16:02:05 16:04:29 17° 336° (NNW) 16:06:45 435.350 FM
CUBESAT XI-V 21 Sep 16:06:18 16:08:44 14° 90° (E) 16:11:10 437.345
PCSat 21 Sep 16:07:21 16:12:39 56° 304° (WNW) 16:18:01 145.827
DOVE 4 21 Sep 16:15:37 16:18:35 18° 66° (ENE) 16:21:29 437.250
BEESAT 21 Sep 16:29:00 16:33:49 76° 286° (WNW) 16:38:36 436.000
CUTE-I 21 Sep 16:36:58 16:38:11 11° 56° (NE) 16:39:24 437.470
ITAMSAT 1 21 Sep 16:42:33 16:46:41 24° 266° (W) 16:50:50 435.822/435.867
LilacSat-2 21 Sep 16:49:58 16:50:44 10° 63° (ENE) 16:51:30 437.200
KAITUO 1B 21 Sep 17:16:01 17:18:07 14° 65° (ENE) 17:20:15 145.475/437.950
MOZHAYETS 4 21 Sep 17:22:51 17:26:24 22° 294° (WNW) 17:29:56
ITUPSAT 1 21 Sep 17:29:14 17:32:52 22° 296° (WNW) 17:36:30 437.325
XW-2D 21 Sep 17:38:03 17:41:34 35° 71° (ENE) 17:45:06 145.860 - 145.880
CUBESAT XI-V 21 Sep 17:41:55 17:46:30 59° 286° (WNW) 17:51:01 437.345
HO-68 21 Sep 17:46:51 17:52:28 26° 58° (ENE) 17:58:05 435.675
XW-2B 21 Sep 17:50:07 17:53:48 47° 74° (ENE) 17:57:31 145.730 - 145.750
AO-7 21 Sep 17:50:21 17:52:40 11° 274° (W) 17:54:59 .
DOVE 4 21 Sep 17:51:43 17:56:00 43° 261° (W) 18:00:07 437.250
XW-2F 21 Sep 17:52:04 17:55:45 47° 73° (ENE) 17:59:27 145.980 - 146.000
PCSat 21 Sep 17:55:13 17:57:17 12° 325° (NW) 17:59:22 145.827
CUTE 1.7 + AOD 2 21 Sep 17:55:35 17:57:26 13° 63° (ENE) 17:59:16 437.475
KKS-1 21 Sep 17:59:15 18:03:43 75° 103° (ESE) 18:08:09 437.445
XW-2C 21 Sep 18:11:09 18:14:59 89° 85° (E) 18:18:52 145.795 - 145.815
CUTE-I 21 Sep 18:12:00 18:17:18 75° 74° (ENE) 18:22:37 437.470
RS-15 21 Sep 18:15:23 18:17:49 11° 268° (W) 18:20:15 29.354- 29.394
LilacSat-2 21 Sep 18:20:36 18:24:27 65° 260° (W) 18:28:19 437.200
NUDT-PHONESAT 21 Sep 18:23:13 18:26:58 89° 77° (ENE) 18:30:45 437.300
STARS 21 Sep 18:30:21 18:34:44 66° 101° (ESE) 18:39:07 437.465
KAITUO 1B 21 Sep 18:48:08 18:51:44 42° 261° (W) 18:55:23 145.475/437.950
AO-73 21 Sep 19:04:17 19:05:30 11° 60° (ENE) 19:06:45 145.935
ZACube-1 21 Sep 19:04:55 19:06:51 13° 61° (ENE) 19:08:47 437.345
SEEDS 21 Sep 19:05:13 19:09:13 42° 72° (ENE) 19:13:14 437.485
XW-2D 21 Sep 19:13:22 19:15:51 16° 268° (W) 19:18:20 145.860 - 145.880
XW-2A 21 Sep 19:14:27 19:17:31 32° 72° (ENE) 19:20:38 145.665 - 145.685
NO-84 21 Sep 19:19:53 19:21:35 14° 20° (NNE) 19:23:16 435.350 FM
XW-2B 21 Sep 19:26:36 19:28:14 12° 269° (W) 19:29:54 145.730 - 145.750
CUTE 1.7 + AOD 2 21 Sep 19:28:27 19:32:42 65° 260° (W) 19:36:59 437.475
XW-2F 21 Sep 19:28:31 19:30:07 12° 269° (W) 19:31:44 145.980 - 146.000
HO-68 21 Sep 19:32:30 19:39:35 68° 257° (WSW) 19:46:45 435.675
CUBEBUG 2 21 Sep 19:33:47 19:38:00 77° 74° (ENE) 19:42:21 437.445
AAUSAT CUBESAT 2 21 Sep 19:35:03 19:38:56 40° 72° (ENE) 19:42:50 437.432
KKS-1 21 Sep 19:37:58 19:39:39 12° 299° (WNW) 19:41:19 437.445
Tancredo 1 21 Sep 19:43:04 19:45:02 18° 135° (SE) 19:47:01 437.200
UWE-3 21 Sep 19:45:32 19:49:43 60° 74° (ENE) 19:54:04 435.000/436.395/437.385
STRAND 1 21 Sep 19:52:49 19:57:38 39° 98° (E) 20:02:24 437.568
CUTE-I 21 Sep 19:55:15 19:57:54 14° 270° (W) 20:00:34 437.470
STARS 21 Sep 20:08:27 20:10:32 13° 298° (WNW) 20:12:36 437.465
AO-73 21 Sep 20:36:44 20:41:02 78° 257° (WSW) 20:45:29 145.935
ZACube-1 21 Sep 20:38:15 20:42:31 67° 259° (W) 20:46:56 437.345
Oscar 11 21 Sep 20:38:28 20:42:49 78° 75° (ENE) 20:47:11 .
SEEDS 21 Sep 20:42:19 20:45:05 17° 268° (W) 20:47:52 437.485
BEESAT 3 21 Sep 20:43:13 20:47:13 81° 304° (WNW) 20:51:17 437.485
ISS 21 Sep 20:45:35 20:47:28 15° 131° (SE) 20:49:21 437.550
BEESAT 2 21 Sep 20:45:42 20:49:17 32° 115° (ESE) 20:52:55 435.950
XW-2A 21 Sep 20:48:34 20:50:21 14° 268° (W) 20:52:09 145.665 - 145.685
EO-88 21 Sep 20:55:40 20:57:32 14° 65° (ENE) 20:59:25 145.990 - 145.960
NO-84 21 Sep 20:56:26 20:59:26 81° 40° (NE) 21:02:16 435.350 FM
AAUSAT CUBESAT 2 21 Sep 21:11:47 21:14:33 17° 268° (W) 21:17:19 437.432
Tancredo 1 21 Sep 21:16:50 21:19:24 39° 331° (NNW) 21:21:59 437.200
Max Valier Satellite 21 Sep 21:21:46 21:25:10 36° 72° (ENE) 21:28:37 145.860
DELFI C3 21 Sep 21:24:11 21:28:03 55° 75° (ENE) 21:31:55 145.870
AO-85 21 Sep 21:24:21 21:28:15 89° 314° (NW) 21:32:12 145.980
UWE-3 21 Sep 21:24:50 21:26:37 12° 271° (W) 21:28:23 435.000/436.395/437.385
HO-68 21 Sep 21:27:42 21:28:35 10° 275° (W) 21:29:26 435.675
nSIGHT-1 21 Sep 21:27:54 21:30:57 40° 139° (SE) 21:34:02 .
STRAND 1 21 Sep 21:32:20 21:36:36 27° 295° (WNW) 21:40:52 437.568
UNISAT 6 21 Sep 21:53:31 21:57:06 21° 93° (E) 22:00:40 437.425
FO-29 21 Sep 22:06:52 22:12:18 78° 103° (ESE) 22:18:19 435.910
YUBILEINY 21 Sep 22:09:19 22:15:04 19° 61° (ENE) 22:20:47 435.215
TIGRISAT 21 Sep 22:17:20 22:21:36 34° 97° (E) 22:25:51 435.000
ISS 21 Sep 22:20:19 22:23:34 68° 328° (NNW) 22:26:51 437.550
BEESAT 2 21 Sep 22:23:38 22:27:02 26° 313° (NW) 22:30:29 435.950
BEESAT 3 21 Sep 22:23:53 22:25:27 12° 323° (NW) 22:27:02 437.485
EO-88 21 Sep 22:27:20 22:30:49 41° 261° (W) 22:34:20 145.990 - 145.960
ESTCUBE 1 21 Sep 22:27:40 22:30:54 20° 65° (ENE) 22:34:09 437.505/2401.250
SO-50 21 Sep 22:48:38 22:52:50 34° 48° (NE) 22:57:03 436.795
Tancredo 1 21 Sep 22:53:06 22:54:30 13° 351° (N) 22:55:54 437.200
Max Valier Satellite 21 Sep 22:56:59 22:59:08 15° 268° (W) 23:01:19 145.860
DELFI C3 21 Sep 23:01:55 23:03:08 11° 270° (W) 23:04:20 145.870
nSIGHT-1 21 Sep 23:04:26 23:07:21 30° 337° (NNW) 23:10:17 .
AO-85 21 Sep 23:07:46 23:09:17 12° 323° (NW) 23:10:49 145.980
PCSat 21 Sep 23:11:55 23:16:12 23° 45° (NE) 23:20:25 145.827
SPROUT 21 Sep 23:21:55 23:24:40 17° 65° (ENE) 23:27:25 437.525
AIST 2D 21 Sep 23:22:40 23:25:12 18° 94° (E) 23:27:42 435.315
UNISAT 6 21 Sep 23:29:33 23:33:54 40° 289° (WNW) 23:38:17 437.425
LO-87 21 Sep 23:30:33 23:34:00 55° 260° (W) 23:37:30 145.935 - 145.965
PRISM 21 Sep 23:30:36 23:34:38 67° 286° (WNW) 23:38:39 437.425
FO-29 21 Sep 23:53:51 23:56:53 15° 299° (WNW) 00:00:02 435.910
TIGRISAT 21 Sep 23:54:16 23:58:06 26° 293° (WNW) 00:01:57 435.000
ISS 21 Sep 23:58:02 00:00:31 19° 347° (NNW) 00:03:01 437.550
ESTCUBE 1 22 Sep 00:03:03 00:07:22 44° 261° (W) 00:11:43 437.505/2401.250
NANOSAT C BR1 22 Sep 00:03:35 00:06:49 21° 94° (E) 00:10:02 145.865
YUBILEINY 22 Sep 00:04:28 00:13:14 86° 83° (E) 00:22:01 435.215
UKube-1 22 Sep 00:22:08 00:22:27 10° 59° (ENE) 00:22:45 .
DX 1 22 Sep 00:22:09 00:24:49 16° 63° (ENE) 00:27:30 434.975-435.025
Tancredo 1 22 Sep 00:28:26 00:29:55 13° 11° (N) 00:31:23 437.200
SO-50 22 Sep 00:29:12 00:33:12 30° 246° (WSW) 00:37:15 436.795
DUCHIFAT 1 22 Sep 00:32:39 00:36:38 37° 98° (E) 00:40:36 145.980
VELOX 1 22 Sep 00:40:51 00:45:15 90° 206° (SSW) 00:49:40 145.980
nSIGHT-1 22 Sep 00:42:21 00:44:26 16° 357° (N) 00:46:30 .
POLYITAN 1 22 Sep 00:43:03 00:47:20 64° 101° (E) 00:51:35 437.675
EO-79 22 Sep 00:47:56 00:52:14 73° 103° (ESE) 00:56:30 145.935-145.965
PCSat 22 Sep 00:54:39 01:00:02 63° 244° (WSW) 01:05:21 145.827
AIST 2D 22 Sep 00:55:24 00:58:23 26° 289° (WNW) 01:01:19 435.315
SPROUT 22 Sep 00:56:10 01:00:12 44° 261° (W) 01:04:18 437.525
QB50P2 22 Sep 01:00:50 01:05:07 73° 284° (WNW) 01:09:22 145.880/145.840
BUGSAT 1 22 Sep 01:16:16 01:19:59 30° 97° (E) 01:23:43 437.445
50 SAT 22 Sep 01:19:53 01:23:11 87° 76° (ENE) 01:26:31 437.505
M-CUBED/EXP-1 PRIME 22 Sep 01:21:23 01:24:26 33° 103° (ESE) 01:27:25 437.505
ISS 22 Sep 01:35:40 01:37:54 17° 7° (N) 01:40:07 437.550
NANOSAT C BR1 22 Sep 01:38:43 01:42:35 34° 290° (WNW) 01:46:27 145.865
Gurwin Techsat 1B 22 Sep 01:43:30 01:47:22 20° 92° (E) 01:51:13 435.225
UKube-1 22 Sep 01:53:28 01:57:46 84° 256° (WSW) 02:02:06 .
DX 1 22 Sep 01:56:23 02:00:36 50° 260° (W) 02:04:50 434.975-435.025
BEESAT 22 Sep 02:00:16 02:03:06 16° 61° (ENE) 02:05:56 436.000
Tancredo 1 22 Sep 02:02:21 02:04:58 43° 30° (NNE) 02:07:35 437.200
YUBILEINY 22 Sep 02:03:11 02:08:50 19° 282° (WNW) 02:14:30 435.215
DUCHIFAT 1 22 Sep 02:08:56 02:12:02 20° 294° (WNW) 02:15:07 145.980
Oscar 19 22 Sep 02:13:38 02:18:44 56° 101° (E) 02:23:47 437.125/150
nSIGHT-1 22 Sep 02:19:00 02:21:38 22° 17° (NNE) 02:24:14 .
POLYITAN 1 22 Sep 02:20:38 02:22:34 13° 298° (WNW) 02:24:30 437.675
EO-79 22 Sep 02:26:00 02:27:23 11° 299° (WNW) 02:28:45 145.935-145.965
O/OREOS (USA 219) 22 Sep 02:40:36 02:44:53 45° 107° (ESE) 02:49:13 437.305
MOZHAYETS 4 22 Sep 02:47:12 02:51:30 40° 70° (ENE) 02:55:50
BUGSAT 1 22 Sep 02:51:50 02:55:11 24° 293° (WNW) 02:58:34 437.445
M-CUBED/EXP-1 PRIME 22 Sep 02:56:50 02:58:36 14° 301° (WNW) 03:00:19 437.505
ITUPSAT 1 22 Sep 02:57:41 03:02:19 54° 72° (ENE) 03:07:00 437.325
CUBESAT XI-V 22 Sep 03:10:02 03:12:55 16° 63° (ENE) 03:15:47 437.345
ISS 22 Sep 03:11:55 03:15:02 39° 27° (NNE) 03:18:09 437.550
ITAMSAT 1 22 Sep 03:16:01 03:18:39 14° 90° (E) 03:21:16 435.822/435.867
Gurwin Techsat 1B 22 Sep 03:22:27 03:27:36 53° 289° (WNW) 03:32:45 435.225
BEESAT 3 22 Sep 03:24:48 03:25:05 10° 35° (NE) 03:25:21 437.485
BEESAT 22 Sep 03:35:39 03:40:21 62° 258° (WSW) 03:45:06 436.000
Tancredo 1 22 Sep 03:37:28 03:39:18 16° 226° (SW) 03:41:05 437.200
AO-7 22 Sep 03:51:16 03:59:02 42° 99° (E) 04:06:43 .
Oscar 19 22 Sep 03:53:58 03:57:37 20° 298° (WNW) 04:01:14 437.125/150
nSIGHT-1 22 Sep 03:55:01 03:58:18 85° 210° (SSW) 04:01:32 .
RS-15 22 Sep 04:10:26 04:19:18 24° 100° (E) 04:28:10 29.354- 29.394
AO-85 22 Sep 04:15:14 04:17:34 14° 39° (NE) 04:19:59 145.980
O/OREOS (USA 219) 22 Sep 04:21:13 04:24:32 20° 305° (NW) 04:27:53 437.305
MOZHAYETS 4 22 Sep 04:25:19 04:28:47 21° 267° (W) 04:32:17
ITUPSAT 1 22 Sep 04:37:29 04:40:28 16° 268° (W) 04:43:28 437.325
CUBESAT XI-V 22 Sep 04:45:10 04:49:48 58° 260° (W) 04:54:27 437.345
ISS 22 Sep 04:48:33 04:51:26 28° 224° (SW) 04:54:18 437.550
ITAMSAT 1 22 Sep 04:53:26 04:58:38 73° 287° (WNW) 05:03:50 435.822/435.867
KKS-1 22 Sep 04:57:23 05:01:47 72° 75° (ENE) 05:06:13 437.445
BEESAT 3 22 Sep 04:59:27 05:03:26 66° 55° (NE) 05:07:20 437.485
BEESAT 2 22 Sep 05:02:39 05:06:04 25° 47° (NE) 05:09:27 435.950
STARS 22 Sep 05:27:03 05:31:20 61° 73° (ENE) 05:35:38 437.465
AO-7 22 Sep 05:44:02 05:51:49 47° 298° (WNW) 05:59:34 .
DOVE 4 22 Sep 05:49:13 05:53:14 42° 99° (E) 05:57:24 437.250
AO-85 22 Sep 05:54:05 05:58:33 86° 56° (ENE) 06:03:21 145.980
LilacSat-2 22 Sep 05:54:53 05:56:40 13° 91° (E) 05:58:26 437.200
RS-15 22 Sep 06:17:47 06:30:05 88° 120° (ESE) 06:42:28 29.354- 29.394
KAITUO 1B 22 Sep 06:19:24 06:21:54 17° 93° (E) 06:24:24 145.475/437.950
CUTE-I 22 Sep 06:28:55 06:33:29 28° 95° (E) 06:38:01 437.470
ITAMSAT 1 22 Sep 06:36:29 06:37:09 10° 304° (NW) 06:37:51 435.822/435.867
KKS-1 22 Sep 06:37:55 06:38:49 11° 271° (W) 06:39:44 437.445
BEESAT 3 22 Sep 06:39:18 06:40:25 11° 252° (WSW) 06:41:31 437.485
BEESAT 2 22 Sep 06:40:12 06:43:51 33° 245° (WSW) 06:47:27 435.950
XW-2D 22 Sep 06:43:42 06:47:25 48° 99° (E) 06:51:04 145.860 - 145.880
XW-2B 22 Sep 06:55:55 06:59:44 66° 101° (E) 07:03:30 145.730 - 145.750
XW-2F 22 Sep 06:57:22 07:01:10 66° 100° (E) 07:04:54 145.980 - 146.000
HO-68 22 Sep 07:00:27 07:06:01 24° 92° (E) 07:11:32 435.675
STARS 22 Sep 07:06:15 07:08:03 12° 269° (W) 07:09:51 437.465
STRAND 1 22 Sep 07:09:01 07:14:00 58° 72° (ENE) 07:19:01 437.568
CUTE 1.7 + AOD 2 22 Sep 07:13:27 07:16:38 20° 93° (E) 07:19:47 437.475
XW-2C 22 Sep 07:17:12 07:21:00 64° 285° (WNW) 07:24:45 145.795 - 145.815
CUBEBUG 2 22 Sep 07:24:39 07:27:47 17° 91° (E) 07:30:55 437.445
NUDT-PHONESAT 22 Sep 07:26:36 07:30:19 69° 285° (WNW) 07:34:00 437.300
LilacSat-2 22 Sep 07:27:29 07:31:11 45° 287° (WNW) 07:34:49 437.200
DOVE 4 22 Sep 07:27:51 07:30:39 18° 294° (WNW) 07:33:31 437.250
UWE-3 22 Sep 07:36:02 07:38:13 13° 89° (E) 07:40:24 435.000/436.395/437.385
AO-85 22 Sep 07:37:08 07:38:25 11° 252° (WSW) 07:39:44 145.980
AO-7 22 Sep 07:40:28 07:42:31 11° 320° (NW) 07:44:34 .
KAITUO 1B 22 Sep 07:52:36 07:55:58 31° 289° (WNW) 07:59:17 145.475/437.950
XW-2A 22 Sep 08:07:55 08:11:03 31° 97° (E) 08:14:08 145.665 - 145.685
CUTE-I 22 Sep 08:08:42 08:13:34 38° 292° (WNW) 08:18:27 437.470
XW-2D 22 Sep 08:19:22 08:21:09 13° 296° (WNW) 08:22:55 145.860 - 145.880
FO-29 22 Sep 08:20:35 08:25:37 33° 68° (ENE) 08:30:19 435.910
SEEDS 22 Sep 08:23:38 08:27:51 78° 103° (ESE) 08:31:59 437.485
AO-73 22 Sep 08:24:44 08:28:10 21° 93° (E) 08:31:34 145.935
ZACube-1 22 Sep 08:26:18 08:30:02 24° 94° (E) 08:33:44 437.345
Oscar 11 22 Sep 08:26:41 08:28:58 14° 90° (E) 08:31:15 .
RS-15 22 Sep 08:33:10 08:44:16 37° 328° (NNW) 08:55:18 29.354- 29.394
HO-68 22 Sep 08:47:08 08:54:15 67° 290° (WNW) 09:01:22 435.675
CUTE 1.7 + AOD 2 22 Sep 08:48:42 08:52:32 34° 290° (WNW) 08:56:21 437.475
STRAND 1 22 Sep 08:50:18 08:53:33 17° 269° (W) 08:56:50 437.568
AAUSAT CUBESAT 2 22 Sep 08:51:28 08:55:35 71° 102° (ESE) 08:59:39 437.432
UNISAT 6 22 Sep 08:53:16 08:56:20 19° 65° (ENE) 08:59:27 437.425
CUBEBUG 2 22 Sep 09:00:05 09:04:37 50° 287° (WNW) 09:09:12 437.445
UWE-3 22 Sep 09:10:26 09:15:04 66° 285° (WNW) 09:19:42 435.000/436.395/437.385
TIGRISAT 22 Sep 09:16:36 09:20:21 30° 68° (ENE) 09:24:12 435.000
XW-2A 22 Sep 09:41:29 09:43:29 15° 293° (WNW) 09:45:27 145.665 - 145.685
EO-88 22 Sep 09:56:20 09:58:30 15° 92° (E) 10:00:40 145.990 - 145.960
AO-73 22 Sep 10:00:14 10:04:31 40° 289° (WNW) 10:08:46 145.935
Oscar 11 22 Sep 10:01:10 10:05:25 53° 287° (WNW) 10:09:37 .
ZACube-1 22 Sep 10:02:11 10:06:20 35° 290° (WNW) 10:10:29 437.345
SEEDS 22 Sep 10:02:28 10:02:52 10° 299° (WNW) 10:03:16 437.485
FO-29 22 Sep 10:05:35 10:10:43 32° 263° (W) 10:15:29 435.910
PRISM 22 Sep 10:19:41 10:23:47 89° 74° (ENE) 10:27:54 437.425
Max Valier Satellite 22 Sep 10:24:27 10:28:05 46° 99° (E) 10:31:41 145.860
UNISAT 6 22 Sep 10:28:38 10:32:43 41° 262° (W) 10:36:55 437.425
AAUSAT CUBESAT 2 22 Sep 10:29:27 10:30:26 11° 298° (WNW) 10:31:26 437.432
DELFI C3 22 Sep 10:34:56 10:38:51 87° 96° (E) 10:42:46 145.870
HO-68 22 Sep 10:37:16 10:40:40 14° 310° (NW) 10:44:04 435.675
RS-15 22 Sep 10:52:19 11:01:45 24° 2° (N) 11:10:56 29.354- 29.394
TIGRISAT 22 Sep 10:53:27 10:57:01 25° 266° (W) 11:00:41 435.000
NANOSAT C BR1 22 Sep 10:56:34 10:59:16 17° 65° (ENE) 11:02:00 145.865
LO-87 22 Sep 10:58:59 10:59:46 11° 91° (E) 11:00:33 145.935 - 145.965
O/OREOS (USA 219) 22 Sep 11:12:23 11:14:24 13° 50° (NE) 11:16:23 437.305
YUBILEINY 22 Sep 11:12:47 11:18:32 20° 78° (ENE) 11:24:15 435.215
DUCHIFAT 1 22 Sep 11:24:50 11:28:26 29° 69° (ENE) 11:32:05 145.980
EO-88 22 Sep 11:28:56 11:32:17 34° 288° (WNW) 11:35:36 145.990 - 145.960
AIST 2D 22 Sep 11:29:01 11:32:32 71° 259° (W) 11:36:07 435.315
POLYITAN 1 22 Sep 11:35:43 11:39:45 49° 72° (ENE) 11:43:51 437.675
EO-79 22 Sep 11:40:24 11:44:29 55° 74° (ENE) 11:48:38 145.935-145.965
QB50P2 22 Sep 11:53:20 11:57:32 87° 80° (E) 12:01:48 145.880/145.840
ESTCUBE 1 22 Sep 11:54:50 11:59:00 36° 97° (E) 12:03:07 437.505/2401.250
Oscar 19 22 Sep 11:55:33 11:57:28 12° 57° (ENE) 11:59:23 437.125/150
Max Valier Satellite 22 Sep 11:59:46 12:01:30 13° 295° (WNW) 12:03:14 145.860
M-CUBED/EXP-1 PRIME 22 Sep 12:06:26 12:10:40 56° 69° (ENE) 12:14:37 437.505
BUGSAT 1 22 Sep 12:06:43 12:09:50 22° 67° (ENE) 12:12:59 437.445
LO-87 22 Sep 12:29:58 12:33:26 48° 286° (WNW) 12:36:55 145.935 - 145.965
NANOSAT C BR1 22 Sep 12:30:38 12:34:37 43° 261° (W) 12:38:40 145.865
VELOX 1 22 Sep 12:31:24 12:34:08 16° 92° (E) 12:36:52 145.980
SPROUT 22 Sep 12:41:13 12:44:55 28° 96° (E) 12:48:37 437.525
O/OREOS (USA 219) 22 Sep 12:49:50 12:54:27 85° 250° (WSW) 12:59:03 437.305
DUCHIFAT 1 22 Sep 13:00:42 13:04:05 24° 265° (W) 13:07:29 145.980
AO-7 22 Sep 13:03:26 13:07:31 15° 44° (NE) 13:11:34 .
Gurwin Techsat 1B 22 Sep 13:04:45 13:09:29 34° 67° (ENE) 13:14:15 435.225
YUBILEINY 22 Sep 13:05:26 13:14:09 84° 278° (W) 13:22:55 435.215
RS-15 22 Sep 13:07:38 13:18:53 40° 36° (NE) 13:29:33 29.354- 29.394
POLYITAN 1 22 Sep 13:13:30 13:15:49 14° 269° (W) 13:18:08 437.675
EO-79 22 Sep 13:18:44 13:20:36 13° 270° (W) 13:22:27 145.935-145.965
Oscar 19 22 Sep 13:30:45 13:35:57 85° 75° (ENE) 13:41:11 437.125/150
ESTCUBE 1 22 Sep 13:32:05 13:35:34 23° 294° (WNW) 13:39:03 437.505/2401.250
UKube-1 22 Sep 13:41:11 13:43:41 15° 92° (E) 13:46:09 .
BUGSAT 1 22 Sep 13:41:31 13:45:02 29° 263° (W) 13:48:36 437.445
M-CUBED/EXP-1 PRIME 22 Sep 13:43:08 13:45:16 13° 262° (W) 13:47:21 437.505
DX 1 22 Sep 13:44:13 13:47:49 25° 96° (E) 13:51:24 434.975-435.025
NO-84 22 Sep 13:48:48 13:52:39 75° 139° (SE) 13:56:11 435.350 FM
PCSat 22 Sep 13:56:01 13:59:01 15° 104° (ESE) 14:02:02 145.827
